Wind_Speed
67 65 65 68 70 73 76 78 80 81 83 84 85 86 86 87 84 84 88 90 91 84 83 90 83 81 89 91 100 109 108 108 108 106 104 103 103 102 99 98 96 94 94 95 97 98 98 99 100 101 99 97 95 92 91 90 92 94 90 82 75 74 83 83 68 55 54 56 57 56 56 59 62 59 55 53 53 53 52 50 47 43 39 35 34 34
70 68 67 70 73 75 78 80 82 83 85 87 89 88 88 90 88 88 90 91 94 91 91 96 90 90 95 96 106 113 111 111 110 109 107 103 102 100 97 95 92 92 93 94 96 98 100 102 103 103 102 100 99 96 95 93 91 93 93 87 79 74 78 84 76 60 54 55 57 58 57 59 62 60 56 54 53 53 52 50 48 46 43 38 35 33
71 70 70 73 75 77 80 83 84 85 87 90 92 91 90 93 93 89 90 92 94 95 98 102 98 97 96 98 111 116 115 114 112 112 112 106 102 99 97 94 91 91 92 93 94 97 100 102 104 105 104 103 102 100 98 97 95 92 93 92 85 77 73 80 82 67 55 55 58 60 58 58 61 61 58 56 54 52 51 48 48 49 46 41 37 34
70 71 72 75 77 79 82 85 87 86 88 92 95 96 94 95 96 93 92 91 90 93 102 108 106 103 97 100 115 120 118 116 114 116 114 108 104 101 100 96 93 92 92 93 94 95 96 98 102 104 105 104 103 102 101 101 99 95 92 92 88 82 74 75 82 75 59 56 58 60 58 57 60 62 59 57 53 49 47 46 47 50 49 46 41 35
71 72 74 76 78 81 83 86 89 88 89 93 97 99 98 98 98 99 99 95 89 87 98 113 114 105 97 101 118 125 118 114 115 115 112 107 105 103 102 99 96 95 94 95 95 95 95 94 97 101 104 104 102 101 101 101 101 98 95 91 87 84 78 74 79 79 66 57 57 59 59 56 58 61 60 56 50 45 44 45 48 53 54 49 41 34
73 74 75 78 79 82 84 87 89 90 91 93 97 99 100 101 102 104 104 102 98 88 93 114 120 108 98 103 121 128 117 111 113 112 108 106 105 103 102 101 99 97 96 96 97 97 96 93 94 97 100 102 101 100 99 99 100 98 96 92 87 84 80 75 76 79 72 60 56 57 58 57 58 61 60 57 52 48 49 52 54 57 54 47 39 35
74 75 77 79 81 83 85 88 90 92 94 95 97 99 101 103 104 107 108 106 106 98 97 116 126 119 111 113 126 129 116 111 112 110 107 106 106 104 103 103 101 100 98 96 97 97 97 96 93 93 94 96 98 98 97 96 96 97 96 92 88 84 81 77 76 78 74 63 55 54 57 59 60 62 62 60 57 54 55 57 58 57 51 44 41 39
75 76 78 80 83 85 87 90 92 95 98 99 100 102 103 106 107 109 110 109 111 107 107 120 131 133 125 124 132 130 119 115 112 111 111 108 106 105 104 104 103 102 100 97 96 96 97 96 94 92 90 90 92 94 94 93 93 95 96 93 88 84 81 77 75 75 74 67 57 53 57 60 61 63 64 63 60 58 58 57 57 56 49 44 44 41
77 79 81 83 84 86 89 93 96 98 101 102 104 105 106 108 109 111 112 113 115 114 117 125 135 140 133 130 137 134 123 117 113 112 113 110 108 107 106 107 105 103 101 98 96 95 96 96 94 91 88 87 88 91 93 93 93 93 93 92 87 84 81 77 74 72 72 69 60 55 57 60 62 65 67 66 63 60 58 55 55 54 47 44 44 42
81 83 84 85 86 88 92 96 99 102 104 106 108 109 110 111 113 114 116 119 120 121 125 130 139 145 138 133 139 137 126 118 115 117 117 115 114 112 112 111 107 104 102 99 96 93 93 94 93 91 87 86 87 89 92 93 92 91 90 89 85 82 79 76 73 70 70 69 63 56 56 60 63 67 68 67 64 61 59 56 54 52 47 44 45 43
84 87 87 88 89 91 95 98 101 104 107 110 112 114 115 115 117 117 118 122 124 125 128 133 142 148 140 134 139 140 130 123 122 123 122 119 118 116 116 113 108 104 101 98 95 92 90 90 91 90 87 86 86 86 89 90 90 88 86 85 82 79 77 74 71 68 67 68 63 56 56 60 64 68 70 69 66 63 60 57 54 52 49 47 47 45
86 88 89 90 91 94 98 99 102 105 109 113 117 120 121 121 122 119 119 123 126 127 130 136 144 144 138 137 141 139 133 129 128 127 124 121 120 118 116 112 106 101 98 95 92 90 87 85 86 86 85 85 83 81 83 87 87 84 82 81 79 76 74 71 69 67 66 67 63 57 58 61 64 69 72 70 68 65 61 59 57 55 53 51 49 46
86 89 90 91 93 96 100 101 103 106 110 116 120 123 125 127 127 122 119 120 124 128 130 137 144 138 134 139 141 136 131 130 130 127 125 125 123 119 114 109 103 99 97 94 91 89 86 82 81 80 81 82 79 77 77 81 83 80 77 77 76 74 71 68 67 66 65 66 63 57 58 63 65 69 72 71 70 67 64 62 60 58 55 53 51 47
85 88 91 94 95 98 101 104 107 109 112 116 120 124 128 131 133 130 126 126 131 134 132 137 140 133 132 140 139 133 130 129 128 127 127 128 125 120 114 109 104 98 95 92 89 88 85 83 79 76 76 77 75 74 74 76 78 76 74 73 73 72 69 66 65 66 66 66 64 59 59 64 67 70 73 72 72 70 67 65 62 60 58 56 54 50
86 88 92 97 99 101 103 107 111 113 114 116 119 125 128 131 136 138 137 139 144 146 142 139 136 131 134 139 136 133 131 127 126 125 126 125 121 118 114 110 107 101 97 92 86 83 81 80 79 74 72 71 71 71 71 72 73 73 71 69 70 70 69 66 65 67 66 66 66 62 61 66 69 71 74 74 74 73 70 68 66 63 61 59 57 54
88 89 94 98 101 104 107 110 114 116 117 118 120 125 128 131 138 141 144 146 150 155 153 146 139 136 135 134 132 132 127 123 123 122 120 117 114 112 109 106 104 100 98 94 87 81 76 74 75 73 69 66 67 69 68 68 69 69 68 66 67 68 68 67 66 68 67 65 67 66 64 67 70 73 76 76 75 74 72 71 69 66 63 61 60 58
91 90 95 99 101 104 108 111 115 118 120 121 122 125 129 134 139 142 147 149 154 160 158 153 150 143 137 134 132 129 123 119 121 120 116 113 110 106 101 98 96 93 93 92 88 83 76 72 71 70 65 61 61 63 64 64 65 65 64 62 64 66 67 67 66 68 68 65 67 68 65 68 72 73 76 76 76 76 74 73 71 68 67 65 64 62
98 93 94 99 102 104 108 111 114 118 122 124 125 128 132 136 140 144 148 151 158 163 158 159 156 143 138 140 134 128 123 120 120 119 115 111 105 100 95 91 88 85 84 84 82 79 76 74 72 68 63 58 55 57 59 60 61 61 58 58 63 65 66 66 67 70 69 66 69 69 66 69 73 74 77 78 78 79 77 75 74 72 70 68 67 65
105 99 94 98 104 106 108 112 115 118 122 125 128 132 136 139 142 145 149 154 163 165 161 165 158 139 140 143 132 127 127 122 122 119 113 107 100 94 90 85 80 77 76 74 71 70 71 72 72 69 63 58 54 55 56 57 58 57 54 55 61 64 65 66 69 73 72 69 71 71 68 71 75 76 79 81 81 81 79 77 76 74 71 70 69 67
108 106 99 99 105 109 111 114 116 118 120 124 129 134 138 143 145 147 151 157 165 168 168 172 160 142 144 144 130 128 128 124 123 119 112 106 97 92 87 80 75 71 68 65 62 62 64 66 68 67 63 57 54 55 56 55 55 54 51 53 59 62 63 66 72 76 75 72 72 71 70 73 76 76 78 83 83 82 81 80 78 76 74 72 71 70
110 111 106 103 106 111 113 116 118 119 122 126 131 136 140 144 148 152 154 158 165 169 172 174 162 148 148 143 131 128 127 123 122 118 113 107 99 92 85 77 73 68 64 61 58 58 60 62 64 63 61 56 53 55 56 54 54 53 50 51 57 61 62 66 74 78 76 73 72 72 71 73 76 76 78 84 85 83 83 82 80 78 76 75 73 73
113 114 112 110 111 113 116 118 120 121 125 130 134 139 143 147 151 156 158 159 164 168 171 171 161 150 147 141 132 129 126 122 119 116 112 107 100 92 83 77 72 68 65 62 57 56 56 58 60 60 58 55 53 54 55 54 54 53 50 52 56 60 63 68 75 79 76 73 73 73 73 74 77 80 81 86 87 84 83 83 81 79 78 76 75 74
115 117 117 117 116 117 118 120 121 124 129 133 137 142 145 148 153 158 162 164 167 170 170 167 159 149 142 137 132 128 125 121 118 114 110 103 98 91 83 78 73 68 66 63 58 55 54 54 56 57 57 54 52 54 54 53 54 53 51 54 57 60 65 70 75 76 74 72 74 75 74 74 78 82 84 87 89 86 84 84 84 81 79 77 76 75
119 120 121 122 121 120 120 120 122 127 131 135 139 142 144 148 152 158 164 167 170 172 170 165 159 146 134 130 127 124 122 121 117 112 105 99 94 88 82 76 72 69 66 61 56 53 51 51 51 53 55 53 50 52 54 54 55 54 53 56 58 60 66 72 74 73 71 71 74 75 75 76 79 83 85 88 90 88 85 86 87 84 81 79 78 77
122 123 125 127 126 123 122 121 124 128 132 136 139 142 145 148 153 159 165 167 171 173 167 164 159 141 127 125 122 119 120 119 114 108 102 95 89 82 76 72 70 69 66 60 55 51 49 48 48 50 53 51 49 51 53 54 56 56 55 57 59 61 66 71 73 71 70 72 75 76 76 79 82 85 86 88 92 91 88 87 89 86 83 81 80 79
123 125 127 130 130 128 128 129 131 133 135 139 143 145 147 151 156 162 165 168 174 172 162 161 156 137 125 122 118 117 119 115 109 104 97 91 85 78 73 68 67 68 66 60 55 50 47 46 46 48 51 50 48 50 52 54 56 57 57 58 60 62 66 71 72 70 70 71 74 76 77 80 83 85 88 90 93 95 92 89 90 89 85 82 81 80
124 126 128 129 129 129 132 135 137 139 140 144 148 150 152 155 160 165 168 172 177 170 160 160 153 135 125 121 115 116 117 112 107 102 94 88 82 76 71 67 65 66 64 58 52 48 46 46 45 46 48 47 46 47 51 54 54 56 58 59 60 62 65 70 70 67 68 70 72 75 77 80 82 85 89 91 94 98 97 92 90 90 87 83 82 82
126 127 129 128 127 129 134 137 140 141 144 147 151 154 157 160 164 168 170 174 176 169 162 159 147 133 127 121 116 116 115 111 107 100 92 87 80 74 70 66 64 64 59 53 48 44 43 45 45 45 45 45 44 45 49 52 52 54 57 59 60 61 65 68 68 65 65 68 72 75 76 79 81 84 88 91 95 99 98 93 90 89 88 85 82 82
128 128 129 128 128 131 136 139 141 143 145 149 154 158 162 165 168 170 172 175 174 168 165 157 141 131 128 123 118 116 112 109 105 97 91 87 79 73 68 64 62 61 56 51 46 42 41 42 43 44 44 43 42 43 45 49 50 51 54 57 59 60 63 66 66 64 64 68 73 75 76 78 80 83 86 90 94 98 97 94 90 89 89 87 84 82
130 130 130 131 131 133 137 140 143 145 147 152 157 162 165 168 170 172 173 174 171 167 163 151 136 129 127 122 118 114 108 106 102 96 93 89 80 72 66 63 61 59 56 52 46 43 40 39 40 42 43 41 40 41 42 45 47 48 51 55 57 59 61 62 63 62 62 68 73 76 77 78 80 83 85 88 92 96 97 95 92 90 89 88 86 84
132 132 133 134 134 134 137 141 143 146 149 154 161 165 167 170 172 173 173 172 169 165 157 144 132 125 121 117 115 110 104 102 99 96 94 89 80 71 65 62 60 58 56 52 47 43 39 37 37 38 39 40 38 38 40 42 45 46 48 53 55 57 59 60 60 61 61 66 71 75 77 79 81 83 85 88 92 96 96 95 94 92 90 89 88 85
134 134 135 137 136 135 138 141 144 146 150 156 163 166 168 171 172 172 171 169 167 163 152 140 128 121 117 115 113 108 101 97 96 95 95 88 79 71 65 60 57 55 55 51 46 42 39 36 36 35 35 37 37 36 37 40 43 45 47 50 52 55 57 57 58 59 60 63 68 73 77 79 81 84 86 89 93 96 96 96 94 92 91 89 87 85
137 137 137 138 138 138 140 143 145 147 152 159 165 167 170 172 172 172 170 165 163 160 150 138 127 120 117 115 112 106 99 93 92 94 94 87 77 71 65 59 53 52 53 51 46 42 38 36 35 34 34 34 35 35 36 38 42 44 45 47 50 53 55 55 57 59 59 61 65 71 77 79 80 83 86 90 94 96 97 97 95 93 91 89 87 85
139 139 139 141 142 142 144 146 148 151 155 161 166 170 172 173 173 172 167 161 160 157 147 136 126 121 117 112 109 105 97 89 87 91 94 86 76 71 66 57 51 48 49 51 47 41 37 35 34 34 33 33 34 34 34 36 40 42 43 45 49 51 53 54 56 58 58 59 63 69 75 77 78 80 84 89 94 96 97 97 96 93 91 90 88 84
141 141 141 144 146 147 149 151 153 154 157 162 168 171 173 174 174 171 163 157 157 155 146 136 126 119 113 107 104 102 95 85 81 86 91 85 75 71 66 56 49 45 45 48 48 43 37 33 32 33 33 32 33 34 33 34 37 40 42 45 48 50 51 53 55 57 57 57 61 68 72 74 76 79 82 87 93 97 97 96 95 93 91 89 86 82
142 143 144 146 148 151 154 156 156 156 159 164 169 171 174 175 173 168 160 155 155 153 147 138 126 116 110 103 99 97 93 83 76 80 88 86 77 72 66 57 48 42 40 43 45 43 38 33 32 32 32 33 34 33 33 33 34 38 42 45 46 47 49 51 53 55 55 55 60 66 69 71 74 78 80 85 92 97 97 95 94 91 89 87 84 82
143 145 147 148 151 155 158 158 158 158 161 166 169 172 175 175 171 167 160 155 154 151 146 138 125 114 108 101 95 94 91 82 74 75 81 83 80 75 69 61 52 43 39 39 42 43 39 34 32 33 33 33 34 34 32 32 32 35 41 44 45 45 45 48 51 53 54 55 58 63 67 69 73 76 79 83 90 96 96 94 91 89 87 86 85 83
145 147 148 150 154 158 159 159 159 161 164 168 171 173 176 174 170 166 160 153 150 147 142 135 125 114 106 100 94 92 90 82 74 72 73 75 76 75 72 66 58 49 40 37 38 41 41 36 32 33 34 34 34 33 32 31 31 34 39 43 44 42 43 46 50 52 54 55 58 62 66 69 72 75 78 82 88 94 95 93 90 89 88 87 85 84
147 149 150 153 156 158 159 160 161 163 167 172 173 174 174 173 169 165 159 151 146 141 136 128 119 110 103 98 93 91 88 81 72 67 67 66 66 68 68 66 62 56 48 41 37 36 38 38 34 32 34 35 34 32 31 30 30 32 37 42 41 40 42 46 50 52 53 55 57 61 65 68 72 74 77 81 87 92 95 93 91 90 90 88 86 84
149 150 153 155 157 159 160 160 162 166 170 174 174 173 173 172 169 164 158 152 145 138 130 121 113 106 100 94 92 90 87 83 76 68 65 63 61 61 62 60 58 55 49 43 39 34 34 37 37 34 34 35 34 32 30 29 30 32 37 40 39 39 43 47 49 51 53 54 56 60 63 67 70 73 76 81 85 90 94 94 93 92 90 88 86 83
151 153 155 157 159 160 160 160 163 168 172 172 172 172 173 171 168 163 158 153 146 137 126 116 111 106 97 92 91 90 85 83 80 74 68 65 60 58 58 56 55 52 45 38 35 34 34 37 38 36 35 35 33 32 30 29 30 33 37 37 37 40 44 48 49 51 53 54 55 58 62 65 68 71 74 79 84 88 92 93 93 92 90 88 86 84
154 156 157 159 161 160 160 161 165 169 170 170 170 173 173 169 165 162 157 151 144 134 122 114 110 104 95 89 89 90 85 81 80 75 71 68 63 57 54 53 51 50 47 40 34 32 35 38 38 36 36 35 32 30 29 28 30 34 36 35 37 41 45 47 50 52 53 54 54 57 60 62 66 69 72 77 82 87 91 92 92 91 89 87 85 83
157 159 160 161 160 159 160 164 167 168 168 170 172 172 170 167 163 160 154 147 140 130 119 111 107 101 94 89 87 88 85 82 79 74 69 67 64 58 54 51 47 45 43 40 36 33 34 38 38 36 36 34 31 30 29 29 31 34 35 35 38 42 45 47 50 52 53 52 53 55 58 60 64 67 70 75 80 86 91 91 91 91 90 87 84 81
160 162 162 161 160 160 161 165 168 168 167 170 172 170 166 164 161 157 152 144 135 126 117 111 106 99 93 88 87 86 84 81 78 72 67 65 63 57 52 49 47 44 41 38 36 35 36 37 37 35 35 34 32 30 30 30 32 34 34 35 38 41 44 48 50 52 53 51 51 54 57 59 63 67 69 74 79 85 90 90 89 90 89 87 84 80
161 163 162 161 163 163 163 165 169 169 167 168 170 167 163 160 157 154 149 140 130 121 116 111 105 97 90 86 85 85 84 81 76 71 67 65 62 57 51 46 43 42 41 39 36 36 37 37 35 34 33 33 32 31 31 31 33 34 34 34 34 36 42 46 48 51 52 51 50 53 56 59 63 66 68 73 79 84 88 90 89 88 87 85 83 80
162 164 164 164 165 164 164 167 168 166 165 167 167 163 159 156 154 150 144 135 125 119 115 111 103 95 89 85 83 83 83 80 75 70 67 64 60 56 51 46 41 39 38 38 36 35 36 37 35 32 31 31 31 32 32 33 33 33 32 31 31 34 41 45 48 51 53 51 51 54 57 60 64 65 68 73 79 84 87 89 89 87 86 84 82 79
164 165 166 166 165 163 165 168 167 164 163 164 162 159 156 152 149 145 138 130 123 117 112 106 99 93 88 84 82 81 81 80 75 69 66 64 59 54 50 46 41 38 37 36 35 34 35 36 35 31 29 28 29 31 33 34 34 33 31 30 30 35 41 47 50 53 55 54 54 56 59 62 64 65 68 74 79 84 86 88 88 88 87 85 83 81
165 167 168 167 166 166 166 167 166 163 161 160 158 156 153 148 144 139 131 124 120 116 108 100 95 90 85 82 81 81 80 79 74 67 64 63 58 51 47 43 38 36 36 35 34 33 34 34 33 31 29 27 27 29 32 34 34 33 31 29 29 34 42 48 52 56 58 59 58 58 61 64 64 65 68 74 79 83 86 87 87 87 86 86 85 82
167 168 168 167 167 167 167 165 164 161 157 155 154 152 149 145 139 131 123 118 116 112 105 96 91 88 83 77 77 79 79 77 73 66 62 61 57 50 45 42 37 33 32 33 33 32 31 31 31 30 29 26 25 27 30 33 34 34 32 29 29 34 42 48 53 58 62 63 62 60 62 65 65 65 69 74 78 82 84 86 87 85 85 86 85 82
168 167 169 169 167 166 165 164 163 159 154 151 150 147 143 138 131 123 117 113 111 108 101 92 87 85 82 76 72 74 76 75 71 65 60 58 55 49 43 40 37 33 30 30 32 31 29 29 29 28 27 26 25 26 29 32 34 34 32 29 29 35 42 49 55 61 65 66 64 63 63 65 65 65 68 75 79 80 82 85 86 85 84 84 84 83
168 167 168 168 166 165 165 164 161 156 152 149 147 144 139 131 122 116 112 109 105 101 95 89 84 81 79 75 71 69 70 70 68 65 61 58 55 50 43 38 36 34 31 30 31 31 29 29 28 27 26 25 24 25 29 31 33 33 32 30 30 36 44 51 58 64 66 67 66 64 64 65 65 65 68 75 80 81 81 83 84 85 85 85 84 84
Wind_Direction
318 322 326 328 330 329 329 329 328 328 329 328 327 327 328 329 332 333 332 332 333 334 336 331 330 336 337 336 337 335 333 333 330 326 323 323 323 323 322 321 319 316 313 311 310 308 306 304 301 299 297 296 295 294 293 291 291 292 291 289 287 285 286 288 284 275 268 265 264 264 264 263 262 262 260 256 256 257 255 251 250 250 249 250 254 255
320 324 328 329 329 329 329 328 328 328 328 326 325 326 328 329 330 332 332 332 334 335 335 332 331 336 336 336 337 334 332 332 328 324 323 323 322 320 319 318 316 313 311 310 309 307 305 303 301 298 297 295 294 293 292 291 290 289 289 288 285 283 283 285 283 276 267 262 260 259 259 260 261 261 259 255 253 254 255 253 252 252 249 247 249 252
322 326 329 329 329 329 329 327 327 328 327 325 324 325 328 328 328 330 331 332 334 334 334 331 331 334 335 336 337 334 332 331 327 324 323 322 321 319 317 315 313 311 309 307 307 306 304 303 301 298 296 294 293 293 292 290 289 288 287 287 285 282 280 281 282 277 267 258 255 255 257 258 259 259 257 254 251 252 255 255 255 255 250 246 245 247
324 327 329 328 329 329 328 326 326 327 326 324 323 325 327 327 327 329 329 330 332 334 333 330 329 331 333 336 336 333 332 330 326 324 323 322 321 317 314 313 311 308 305 304 303 302 301 300 298 296 294 293 292 291 290 289 288 286 285 284 284 282 279 277 279 277 268 257 253 253 256 257 258 258 256 254 251 250 253 256 257 255 250 244 241 241
324 327 329 328 329 328 326 325 325 325 325 324 324 325 326 326 327 328 328 328 330 333 333 330 326 327 331 335 335 333 331 328 325 323 322 321 319 316 314 312 309 305 302 300 299 299 298 296 294 292 291 290 289 288 287 286 286 285 284 282 282 281 279 276 276 276 271 259 252 252 254 256 257 256 254 251 248 245 246 249 251 249 245 242 239 238
326 328 329 329 329 328 326 325 324 324 324 324 325 325 326 326 327 328 327 327 328 330 333 330 324 323 329 335 334 331 329 326 323 322 320 319 317 314 313 310 306 303 300 298 297 296 294 292 291 288 287 286 285 285 283 283 283 282 282 281 280 279 278 276 274 273 272 263 253 251 251 253 253 252 249 245 240 236 236 239 242 244 243 241 241 240
327 330 329 330 330 328 327 325 324 324 324 325 325 325 325 326 326 326 325 326 327 329 334 331 325 324 330 336 334 330 328 325 322 321 319 317 315 313 311 307 305 302 300 298 295 293 292 290 288 285 283 282 282 281 280 279 279 279 279 279 278 278 276 275 272 271 271 265 255 250 248 247 249 248 245 241 237 232 233 235 240 244 245 243 244 243
328 329 329 330 330 328 327 325 324 324 325 325 325 325 325 325 325 325 325 327 327 330 334 331 327 326 331 337 334 328 328 326 322 321 318 316 314 310 307 304 302 300 298 297 294 292 289 287 284 281 279 277 277 277 277 276 277 277 277 277 276 275 274 272 270 268 268 264 256 248 244 242 244 246 242 239 235 232 233 235 239 244 245 245 246 246
328 329 329 330 330 328 327 325 325 325 325 326 325 324 325 325 325 325 326 327 327 330 333 330 328 327 331 337 332 328 329 326 322 320 317 315 311 307 304 301 299 298 296 295 293 290 288 285 282 278 275 273 272 272 273 273 274 274 275 275 274 273 272 270 268 266 265 262 256 248 243 239 240 243 241 238 235 232 232 233 236 241 244 246 246 245
327 328 329 329 329 328 326 325 325 325 325 325 324 324 325 325 325 325 326 327 327 330 331 329 328 328 332 336 331 328 329 324 321 320 317 315 312 309 306 303 302 301 299 297 294 290 287 284 281 277 273 270 268 268 269 270 270 271 271 272 271 270 269 268 266 263 262 261 256 248 242 237 236 239 239 238 235 232 231 230 232 237 239 242 244 243
327 327 328 328 327 326 325 324 325 324 324 323 322 323 324 324 324 325 326 325 326 329 330 329 329 329 333 335 330 328 328 324 323 321 318 316 313 311 308 306 305 304 301 298 295 291 288 284 281 278 273 269 267 266 266 266 266 265 266 267 266 266 265 265 263 261 259 258 254 246 239 234 232 234 237 236 234 230 229 229 229 232 234 236 240 239
326 325 325 324 324 325 324 324 324 324 324 323 323 323 323 323 323 324 326 325 326 329 330 330 330 330 333 333 329 328 327 325 323 321 319 316 312 310 308 307 307 304 300 297 293 290 287 284 281 278 275 271 268 266 263 263 262 261 261 261 261 260 260 259 258 257 254 254 252 243 236 232 229 231 234 235 233 228 225 226 226 227 230 232 236 236
325 324 323 322 323 324 324 324 324 324 324 323 323 322 322 322 323 325 326 325 326 327 329 331 330 331 334 331 328 327 325 324 323 321 319 315 312 310 309 307 305 302 299 296 294 291 288 285 282 278 275 272 269 267 263 261 260 259 258 257 257 256 255 254 253 252 249 248 247 239 233 230 226 227 231 231 230 227 223 224 224 224 227 229 232 233
325 325 324 322 323 325 325 324 324 324 323 323 322 321 322 323 323 325 326 326 326 326 329 332 331 332 333 330 327 326 325 324 323 320 318 315 313 311 310 307 304 302 300 297 296 294 293 290 286 281 277 273 270 266 262 260 259 258 256 254 253 253 251 250 248 247 244 242 241 235 228 227 223 223 227 228 227 226 223 222 222 222 224 226 229 230
325 326 325 324 325 327 326 325 324 323 323 322 321 321 322 322 323 324 326 327 326 326 330 333 331 332 332 329 327 325 324 324 322 319 316 314 313 311 310 308 306 304 301 298 297 295 293 291 287 283 278 274 270 267 263 259 257 256 254 251 249 248 247 246 244 243 240 237 236 230 223 224 222 219 222 225 224 223 222 221 220 220 221 224 227 228
325 327 326 325 326 327 326 325 323 323 322 321 321 321 322 323 323 323 325 326 325 326 331 333 331 332 332 329 326 325 324 323 319 316 314 312 311 310 309 308 306 304 303 300 299 296 292 289 286 283 279 274 270 267 264 259 255 252 251 248 245 243 243 242 240 239 237 234 233 228 221 220 220 217 218 221 223 222 221 220 219 218 219 221 225 226
324 327 327 325 326 326 325 324 323 322 321 321 322 323 324 324 323 323 324 325 324 326 331 333 331 333 332 329 327 326 324 322 318 315 312 311 310 308 307 306 304 303 302 300 299 298 295 291 287 283 279 274 270 267 263 259 255 251 247 245 242 239 238 237 236 235 234 231 230 227 220 218 218 216 215 217 221 222 220 220 219 217 217 219 223 224
322 326 328 325 324 325 324 322 322 321 321 321 323 324 325 324 324 324 324 324 325 327 331 331 331 333 333 329 327 327 325 322 318 314 312 311 310 308 306 305 303 301 299 298 298 299 297 293 288 284 280 276 270 266 262 258 255 250 246 242 239 236 234 233 232 232 231 227 226 223 217 216 217 215 212 213 218 221 220 219 219 217 216 218 221 224
320 324 328 325 322 323 322 321 321 321 321 322 324 324 324 324 323 323 324 325 327 329 331 330 330 334 332 328 328 328 325 322 318 314 313 313 311 308 307 305 304 302 299 297 297 296 293 290 287 284 281 278 272 266 262 258 255 251 245 240 237 234 231 229 228 229 228 225 224 220 213 212 215 214 210 209 214 219 220 219 219 218 217 217 220 223
319 321 326 325 322 321 320 320 320 321 322 323 323 324 323 323 323 323 324 327 328 329 330 329 330 334 331 328 329 328 325 323 319 316 316 314 312 311 310 309 306 304 300 297 295 293 291 289 286 283 281 278 272 267 263 259 255 251 244 238 236 232 229 226 225 226 225 223 222 219 212 210 213 214 211 209 212 217 219 219 219 219 218 217 219 222
318 319 323 325 322 320 319 319 320 321 322 323 323 323 323 323 323 322 325 329 329 329 329 328 330 332 330 329 330 328 326 324 320 317 317 315 314 314 313 311 308 305 302 297 294 293 292 290 286 282 278 274 269 265 262 258 254 250 243 236 234 231 228 225 224 224 223 220 220 218 212 209 212 215 212 208 210 215 218 218 219 219 219 218 219 221
317 318 320 322 321 320 319 319 320 321 323 323 323 324 324 323 323 323 327 330 329 329 328 327 329 331 329 330 331 329 327 324 320 318 317 315 315 315 314 312 310 308 304 300 297 295 293 290 286 282 277 271 265 262 259 255 252 248 241 235 233 231 228 225 223 224 222 218 217 217 212 209 211 214 212 208 209 213 217 218 219 219 219 219 219 222
316 317 319 320 320 320 320 320 321 322 323 323 323 323 323 323 322 323 327 329 328 328 328 327 328 328 329 331 331 329 327 324 321 320 317 316 316 315 314 314 312 310 306 303 301 298 293 288 285 281 276 270 263 259 256 252 249 245 240 234 232 231 229 226 223 223 221 217 216 216 212 209 210 212 211 208 207 210 215 218 219 219 219 219 220 222
315 316 318 319 319 320 320 320 321 322 322 322 322 322 322 322 321 324 328 328 328 328 328 327 326 327 331 332 330 329 327 323 322 320 316 315 315 315 315 315 314 310 307 305 303 299 293 288 283 278 275 271 263 257 254 250 246 243 238 233 231 230 229 227 224 221 220 217 216 215 211 208 208 210 210 208 206 208 213 217 219 219 219 218 219 222
315 317 317 318 319 320 321 321 321 321 321 321 321 321 321 320 321 325 327 327 327 327 328 327 325 327 332 331 329 329 327 323 322 319 316 315 315 315 315 315 313 309 306 304 302 298 293 288 281 276 273 271 266 259 253 250 246 243 239 234 231 229 229 228 224 220 218 216 215 214 210 207 206 207 208 207 205 207 211 216 219 220 219 218 218 220
316 316 316 317 318 320 321 322 321 321 321 321 320 321 320 320 323 325 326 326 327 327 328 326 325 329 333 330 328 329 327 323 321 318 316 316 315 315 315 314 311 307 305 305 303 300 295 289 282 276 273 271 268 261 255 250 247 244 241 237 233 230 229 228 225 219 216 215 214 212 210 208 206 206 206 206 205 206 209 213 217 219 219 218 218 219
315 315 315 316 318 320 321 321 321 321 321 321 321 321 320 321 324 325 326 327 327 328 328 326 326 330 332 328 328 329 327 324 321 318 317 316 314 314 316 315 312 309 307 307 306 302 298 292 285 278 273 270 266 261 256 251 247 245 242 240 236 232 230 230 227 221 217 215 213 210 209 208 208 206 205 205 206 206 208 211 215 218 219 219 218 218
314 314 315 316 318 319 320 320 320 320 321 321 321 320 320 322 324 325 326 327 327 328 327 326 327 331 331 328 329 330 328 324 321 319 317 314 313 316 317 317 315 311 310 309 306 302 297 292 287 280 274 270 264 259 255 252 248 245 242 241 238 234 231 231 230 225 219 215 212 209 208 208 209 207 204 204 205 206 208 210 213 216 218 219 219 219
313 314 315 317 318 319 319 319 319 320 321 321 320 320 321 322 324 325 326 327 328 328 326 326 329 331 330 329 330 330 328 324 320 319 316 313 315 318 320 319 316 311 309 309 306 302 297 291 286 281 276 271 264 258 253 251 248 245 242 240 238 235 232 231 230 227 222 217 213 209 207 208 209 207 205 204 204 205 208 210 212 215 218 220 220 220
313 315 316 317 318 319 319 318 319 320 321 320 319 319 321 323 325 325 326 327 327 326 325 327 330 330 329 329 329 329 327 323 320 318 314 313 316 320 321 319 315 311 309 309 308 303 298 292 286 282 277 272 266 258 254 251 248 244 241 240 238 236 233 231 230 228 223 220 216 211 208 208 208 206 204 204 204 204 207 210 211 213 216 219 220 220
314 315 316 317 318 319 318 318 318 320 320 320 319 319 321 323 324 325 325 326 326 325 325 328 330 329 328 328 328 327 326 323 320 316 313 313 317 321 321 318 315 312 311 310 308 304 298 293 287 282 277 274 268 260 254 250 247 243 240 239 237 235 233 231 230 228 224 221 217 213 210 209 207 205 203 203 204 205 207 210 211 212 215 218 220 221
314 315 316 316 317 318 317 317 318 319 320 319 318 318 321 323 324 324 325 326 325 324 326 328 329 329 329 328 327 326 325 323 320 316 313 313 317 320 320 318 316 314 310 309 307 303 299 294 289 283 277 273 269 263 255 249 247 243 240 238 236 235 233 231 230 229 225 221 217 213 212 211 209 205 202 203 204 205 207 210 212 213 214 217 219 221
313 314 315 316 316 317 317 316 317 319 319 318 317 319 321 323 323 324 325 326 325 324 326 328 329 329 329 328 326 324 323 322 320 316 312 314 318 319 318 318 317 314 309 307 306 303 299 294 289 285 279 274 270 263 256 251 248 244 240 237 234 233 233 232 230 229 226 221 217 214 213 213 211 207 204 203 204 206 207 210 212 213 214 217 219 220
313 314 314 315 316 316 316 317 318 319 319 318 318 320 322 322 323 324 326 326 324 324 326 328 329 329 329 328 325 322 321 321 321 316 312 314 318 318 317 318 319 316 309 305 305 303 298 293 289 285 280 275 271 264 256 251 249 246 241 235 232 231 231 231 230 229 227 222 217 214 214 214 214 211 206 204 204 206 208 209 211 213 215 217 219 220
312 313 313 315 316 316 316 318 319 319 319 318 318 320 322 322 323 324 326 325 324 324 326 327 328 328 328 327 325 321 319 320 322 317 312 314 318 317 316 317 319 317 310 303 302 301 296 290 285 281 277 273 269 264 257 251 249 247 243 236 231 230 230 230 230 229 227 222 217 214 214 214 214 212 208 205 205 207 208 209 210 212 214 217 219 220
311 312 313 315 316 316 317 318 319 319 318 317 318 320 322 322 323 324 325 325 324 324 326 327 328 328 327 327 324 319 317 319 322 319 314 315 318 317 315 316 317 318 310 300 297 297 293 286 279 273 271 269 266 261 254 250 247 245 243 239 233 230 229 229 229 228 227 222 217 215 215 214 214 212 209 206 206 207 209 210 210 212 214 217 219 220
311 312 313 314 315 316 316 317 318 318 318 317 318 321 321 322 323 323 324 325 324 324 325 326 327 327 326 326 324 319 317 319 322 320 316 316 317 316 315 315 315 317 311 300 294 293 290 283 275 269 265 263 262 259 253 249 245 242 240 239 235 230 229 229 228 227 226 221 216 215 215 215 214 212 209 207 206 208 209 210 210 211 213 215 218 220
311 312 312 314 315 315 315 317 318 317 317 317 319 321 321 321 322 323 323 324 324 324 325 326 327 326 326 326 323 319 317 318 320 319 316 316 316 314 314 315 315 316 314 302 293 291 288 282 273 266 263 261 259 257 253 248 243 240 238 236 234 230 229 228 227 226 225 221 216 213 214 214 213 212 210 208 207 207 209 210 210 210 211 214 217 219
310 311 312 313 313 314 315 316 317 317 317 318 320 320 321 321 322 321 322 323 323 324 325 325 325 325 326 325 322 318 316 317 317 317 315 315 313 310 311 312 312 314 315 308 297 289 285 282 275 266 262 261 259 256 252 247 242 238 236 235 232 229 228 227 226 225 223 220 216 213 214 214 213 212 210 208 207 207 208 209 210 210 211 214 216 219
309 310 311 312 312 313 314 315 316 317 317 318 319 320 320 320 320 320 321 322 323 324 325 325 325 325 326 324 320 317 317 317 317 318 317 315 312 310 309 309 308 309 311 308 300 292 283 277 274 268 261 259 258 256 251 246 241 236 235 234 231 228 226 226 224 222 221 219 216 214 214 213 213 212 210 208 208 207 208 208 209 210 211 213 215 218
308 309 309 310 311 312 313 314 315 316 317 317 318 319 319 320 320 320 321 322 323 324 325 325 325 325 326 324 320 317 318 318 317 319 319 316 314 312 310 309 308 307 307 301 292 288 281 273 268 265 261 257 256 256 252 245 240 236 235 233 230 226 225 223 222 220 219 218 215 214 214 213 213 212 210 209 208 208 208 209 210 211 212 213 214 217
307 307 308 310 311 311 313 314 315 315 316 316 317 318 319 319 319 319 320 321 322 324 325 325 326 325 325 324 321 318 318 318 318 319 319 317 315 313 310 308 306 305 304 298 287 280 277 273 268 264 261 258 255 254 253 247 240 237 235 231 228 226 224 221 219 218 217 217 215 214 215 214 213 212 211 209 208 208 209 210 210 210 212 215 216 217
306 306 307 309 310 311 313 314 314 314 315 316 316 318 318 318 318 318 320 321 323 324 324 324 325 325 325 323 321 318 317 317 317 319 319 316 314 314 312 308 305 302 299 295 288 280 275 273 271 267 263 260 256 253 252 248 242 240 236 230 226 225 222 219 217 216 216 216 214 214 215 214 213 212 211 209 208 208 209 211 210 210 212 215 217 217
305 305 306 308 310 311 312 313 312 313 315 316 316 317 317 317 317 318 319 321 322 323 323 324 325 325 324 323 320 317 316 316 316 318 318 316 315 315 314 310 306 303 299 293 286 281 277 275 273 270 265 261 256 252 250 247 244 242 238 232 228 224 221 218 216 215 215 214 213 213 214 213 213 212 211 209 208 208 210 211 212 211 212 214 216 217
304 304 306 308 310 311 312 311 312 313 314 315 316 316 316 316 317 318 319 321 322 322 323 325 324 324 323 322 319 316 315 315 316 319 319 317 315 315 314 310 304 299 297 293 287 281 279 277 276 272 267 262 257 252 249 246 246 245 242 238 232 226 222 219 215 213 214 214 212 212 213 212 212 213 211 210 209 209 210 211 212 213 213 215 216 217
302 303 306 308 309 310 311 311 312 313 314 314 315 315 315 315 316 318 319 320 321 322 323 323 323 322 322 320 318 316 314 315 317 319 317 315 314 314 313 310 305 299 294 291 288 283 280 279 277 274 270 265 259 254 249 247 247 247 244 240 232 226 223 219 214 212 214 214 212 212 212 212 213 212 211 209 209 210 210 212 213 213 215 216 217 218
302 304 307 308 309 309 310 310 311 312 313 313 313 313 314 314 316 318 319 320 321 321 322 322 321 321 321 320 318 316 315 314 316 317 316 313 314 314 312 309 306 302 296 291 288 285 283 281 279 276 272 266 259 254 250 248 247 246 244 239 229 222 220 216 212 211 213 214 213 212 211 212 213 212 210 209 209 210 211 212 213 214 215 217 219 220
302 305 307 307 308 309 309 310 311 312 312 313 312 312 313 314 316 318 319 319 320 320 320 320 320 320 320 320 318 316 314 313 314 315 314 312 313 313 310 307 305 302 297 292 289 286 285 283 281 279 273 265 257 251 249 248 248 246 244 238 228 221 218 214 209 209 212 215 215 213 212 212 213 211 209 208 209 211 211 212 213 215 216 218 220 221
302 305 306 307 307 308 308 309 310 311 312 311 310 311 312 314 316 317 317 318 319 319 319 320 319 319 319 319 317 315 313 312 313 314 313 311 312 313 311 308 305 302 298 293 289 287 286 284 281 279 274 267 257 249 245 246 248 247 244 237 226 220 218 213 208 208 211 214 216 215 213 213 213 211 208 207 209 211 212 212 213 215 216 218 220 222
302 305 306 306 306 307 308 309 310 310 310 309 309 310 311 313 315 316 317 318 318 318 318 319 319 318 318 317 315 313 311 311 312 313 312 311 312 313 313 311 308 305 300 295 290 288 285 281 278 274 270 264 254 244 240 241 244 245 244 236 224 218 217 213 208 208 211 214 216 216 215 214 214 212 208 207 208 211 212 213 214 215 216 218 220 221
303 305 305 305 306 307 308 309 309 309 309 308 308 310 311 313 315 316 317 317 317 317 317 317 318 318 317 317 315 312 310 311 312 313 313 312 312 313 313 312 310 308 304 298 292 287 283 279 273 269 265 259 250 240 236 237 239 241 241 235 221 215 214 211 208 209 211 214 216 217 216 216 216 214 210 207 208 210 212 214 215 216 217 218 219 220
Height
10723 10722 10720 10714 10709 10703 10697 10693 10688 10684 10680 10676 10674 10673 10671 10667 10672 10672 10663 10657 10651 10656 10659 10647 10648 10658 10654 10649 10639 10624 10619 10611 10598 10589 10581 10571 10565 10561 10558 10551 10543 10535 10526 10518 10510 10503 10497 10491 10484 10479 10480 10480 10481 10482 10481 10480 10476 10472 10477 10484 10489 10488 10480 10481 10491 10492 10490 10490 10491 10493 10496 10494 10493 10495 10499 10502 10501 10501 10503 10506 10509 10512 10515 10518 10519 10519
10717 10716 10714 10708 10703 10698 10692 10686 10681 10677 10671 10666 10662 10662 10662 10655 10658 10662 10655 10649 10643 10641 10643 10634 10635 10646 10645 10639 10630 10613 10605 10601 10586 10571 10567 10566 10560 10553 10548 10543 10535 10526 10518 10511 10503 10494 10485 10477 10470 10464 10463 10463 10464 10466 10465 10464 10466 10463 10461 10466 10473 10477 10472 10467 10474 10481 10480 10480 10480 10481 10485 10485 10484 10487 10491 10493 10494 10494 10496 10499 10501 10504 10507 10510 10513 10514
10712 10709 10707 10702 10697 10691 10685 10678 10673 10670 10663 10656 10651 10651 10654 10646 10644 10652 10650 10643 10638 10630 10624 10618 10620 10633 10638 10633 10621 10605 10594 10587 10574 10556 10548 10552 10550 10541 10534 10530 10524 10518 10510 10503 10496 10487 10477 10465 10455 10449 10447 10447 10446 10448 10448 10446 10449 10451 10449 10450 10454 10463 10466 10457 10456 10467 10471 10469 10468 10469 10474 10477 10476 10479 10482 10485 10488 10489 10490 10493 10494 10495 10498 10502 10505 10508
10709 10705 10702 10696 10691 10685 10678 10671 10665 10663 10658 10648 10640 10638 10642 10638 10631 10635 10639 10640 10640 10631 10612 10598 10601 10616 10626 10626 10613 10598 10587 10576 10563 10547 10535 10534 10533 10523 10516 10512 10508 10505 10499 10493 10486 10479 10470 10459 10446 10436 10431 10431 10431 10430 10431 10429 10429 10435 10437 10438 10439 10444 10453 10450 10443 10450 10459 10458 10457 10459 10463 10467 10469 10470 10474 10478 10482 10485 10486 10486 10487 10487 10489 10493 10497 10502
10704 10701 10696 10690 10684 10678 10672 10665 10656 10654 10652 10643 10632 10627 10626 10626 10621 10618 10618 10621 10632 10638 10619 10585 10577 10598 10615 10614 10598 10586 10581 10571 10554 10539 10527 10522 10516 10506 10498 10494 10490 10487 10483 10476 10471 10465 10458 10451 10439 10427 10418 10415 10416 10415 10414 10413 10412 10416 10421 10425 10428 10429 10435 10439 10433 10434 10443 10447 10449 10451 10454 10458 10462 10463 10466 10472 10476 10478 10479 10479 10477 10476 10478 10483 10490 10495
10699 10694 10689 10684 10678 10671 10665 10658 10649 10645 10644 10639 10630 10622 10616 10612 10610 10607 10603 10602 10607 10624 10625 10586 10555 10572 10602 10605 10583 10569 10570 10561 10543 10529 10520 10510 10501 10493 10485 10479 10474 10469 10465 10459 10452 10447 10441 10437 10429 10417 10407 10399 10398 10399 10398 10398 10397 10399 10403 10408 10413 10416 10419 10424 10423 10421 10427 10436 10439 10442 10445 10449 10453 10455 10458 10463 10465 10467 10467 10467 10465 10465 10471 10478 10484 10488
10693 10689 10683 10678 10672 10664 10657 10649 10641 10636 10633 10630 10624 10617 10612 10605 10602 10598 10592 10590 10587 10596 10609 10584 10542 10538 10572 10589 10567 10550 10553 10546 10529 10515 10506 10497 10487 10480 10472 10463 10457 10450 10446 10442 10435 10430 10423 10419 10415 10405 10396 10387 10381 10380 10381 10382 10382 10384 10388 10393 10399 10402 10405 10409 10410 10409 10414 10423 10429 10433 10436 10439 10443 10446 10449 10451 10454 10455 10456 10458 10459 10460 10467 10474 10476 10479
10687 10683 10676 10671 10665 10656 10648 10640 10633 10627 10620 10617 10612 10608 10606 10599 10595 10589 10582 10579 10573 10576 10586 10575 10540 10521 10544 10565 10544 10528 10530 10521 10510 10497 10485 10480 10470 10462 10454 10444 10438 10430 10425 10423 10417 10412 10406 10400 10397 10391 10384 10376 10368 10364 10364 10366 10367 10368 10372 10378 10385 10388 10391 10396 10397 10398 10402 10410 10418 10423 10425 10428 10433 10437 10439 10440 10443 10446 10448 10453 10455 10456 10462 10467 10468 10471
10681 10677 10671 10665 10658 10650 10640 10631 10623 10616 10609 10605 10600 10597 10597 10592 10587 10580 10573 10567 10563 10564 10567 10560 10537 10514 10530 10547 10519 10502 10508 10495 10485 10475 10460 10454 10446 10438 10431 10420 10415 10411 10405 10403 10397 10392 10385 10379 10376 10373 10369 10364 10357 10352 10351 10352 10353 10354 10357 10363 10369 10373 10376 10381 10385 10387 10391 10398 10406 10411 10414 10419 10423 10427 10428 10429 10433 10438 10442 10447 10450 10452 10456 10460 10462 10464
10674 10668 10664 10658 10651 10644 10634 10623 10614 10606 10599 10593 10588 10586 10588 10583 10576 10570 10563 10555 10553 10556 10553 10543 10526 10502 10514 10531 10498 10475 10483 10473 10459 10450 10437 10429 10421 10413 10405 10395 10392 10390 10385 10379 10374 10370 10364 10358 10353 10351 10351 10348 10344 10340 10337 10338 10339 10340 10342 10347 10353 10358 10361 10366 10371 10376 10379 10384 10393 10400 10405 10409 10412 10416 10419 10422 10426 10430 10435 10440 10443 10447 10451 10453 10455 10457
10666 10659 10655 10649 10644 10637 10628 10618 10608 10599 10591 10582 10574 10571 10573 10572 10567 10564 10559 10546 10541 10549 10547 10533 10515 10493 10493 10502 10480 10456 10455 10450 10439 10430 10420 10412 10402 10390 10380 10375 10373 10369 10363 10356 10349 10346 10342 10337 10332 10328 10329 10328 10328 10327 10323 10321 10322 10325 10328 10333 10338 10342 10347 10352 10357 10363 10367 10371 10381 10390 10394 10397 10401 10405 10409 10413 10419 10422 10427 10432 10436 10439 10443 10445 10446 10449
10658 10651 10647 10641 10636 10629 10621 10613 10602 10592 10581 10569 10560 10552 10551 10554 10554 10556 10555 10542 10532 10536 10539 10527 10508 10496 10487 10476 10461 10448 10439 10431 10421 10410 10401 10391 10380 10371 10361 10356 10354 10347 10339 10335 10329 10323 10321 10318 10313 10308 10306 10306 10309 10311 10308 10303 10303 10308 10314 10317 10321 10326 10332 10337 10342 10348 10353 10357 10367 10377 10381 10384 10389 10394 10399 10405 10411 10414 10418 10422 10426 10430 10434 10437 10438 10441
10656 10647 10641 10635 10630 10622 10612 10605 10597 10590 10578 10561 10551 10542 10535 10531 10529 10534 10538 10532 10524 10523 10530 10521 10496 10492 10490 10467 10447 10439 10429 10417 10404 10392 10382 10369 10356 10350 10344 10335 10331 10325 10316 10311 10308 10302 10301 10299 10297 10293 10288 10286 10289 10291 10290 10287 10286 10292 10298 10301 10305 10310 10316 10322 10327 10332 10338 10343 10352 10362 10368 10372 10377 10382 10388 10395 10401 10405 10408 10412 10416 10421 10426 10430 10432 10435
10655 10644 10635 10626 10623 10616 10604 10594 10586 10583 10577 10563 10548 10535 10526 10513 10501 10505 10511 10509 10505 10506 10521 10522 10495 10486 10483 10459 10437 10428 10418 10406 10393 10379 10364 10350 10336 10325 10318 10308 10302 10301 10295 10290 10287 10282 10278 10276 10276 10276 10271 10268 10270 10271 10271 10270 10271 10276 10282 10285 10289 10294 10300 10307 10313 10317 10323 10330 10338 10347 10354 10358 10363 10369 10377 10384 10391 10396 10399 10402 10407 10413 10418 10422 10424 10427
10648 10640 10629 10616 10608 10602 10594 10583 10573 10570 10567 10560 10546 10529 10519 10506 10484 10478 10481 10477 10468 10469 10494 10506 10492 10484 10474 10449 10426 10412 10405 10396 10382 10370 10353 10339 10326 10309 10296 10285 10276 10275 10272 10270 10270 10268 10263 10257 10255 10256 10255 10253 10253 10253 10254 10255 10256 10260 10264 10269 10274 10280 10286 10292 10299 10303 10308 10316 10323 10332 10340 10345 10351 10357 10365 10372 10379 10385 10389 10393 10398 10403 10409 10413 10416 10418
10639 10633 10622 10610 10600 10589 10581 10571 10558 10554 10552 10547 10540 10524 10512 10501 10480 10465 10465 10462 10444 10436 10459 10473 10469 10474 10466 10445 10425 10404 10395 10386 10367 10355 10343 10328 10316 10301 10288 10277 10265 10258 10252 10247 10249 10250 10249 10245 10241 10241 10242 10242 10240 10237 10238 10240 10242 10244 10248 10254 10260 10265 10271 10277 10284 10289 10295 10303 10310 10318 10327 10334 10340 10345 10353 10362 10369 10376 10381 10384 10389 10394 10400 10404 10406 10408
10627 10627 10615 10602 10597 10586 10574 10565 10552 10543 10535 10530 10528 10517 10502 10491 10475 10456 10448 10449 10433 10419 10432 10438 10435 10446 10441 10423 10412 10395 10383 10373 10351 10335 10326 10313 10302 10291 10282 10271 10260 10252 10241 10233 10230 10228 10230 10230 10227 10227 10230 10231 10229 10225 10224 10226 10227 10229 10234 10241 10245 10251 10256 10263 10271 10276 10282 10291 10298 10307 10316 10323 10328 10335 10344 10354 10360 10367 10373 10376 10380 10385 10389 10393 10396 10399
10605 10617 10613 10595 10588 10583 10570 10560 10552 10540 10525 10514 10510 10504 10493 10481 10471 10456 10439 10432 10419 10407 10415 10416 10413 10424 10412 10389 10383 10372 10360 10352 10335 10319 10308 10297 10286 10276 10270 10262 10252 10245 10235 10226 10222 10216 10213 10211 10209 10211 10215 10217 10217 10213 10211 10212 10214 10216 10222 10228 10231 10236 10243 10250 10258 10262 10268 10278 10285 10293 10304 10311 10317 10325 10334 10343 10349 10355 10361 10366 10371 10375 10379 10384 10388 10391
10583 10595 10609 10595 10578 10575 10567 10554 10546 10536 10521 10504 10493 10487 10479 10466 10457 10451 10440 10424 10403 10391 10393 10391 10397 10411 10396 10372 10364 10352 10339 10329 10312 10298 10288 10278 10269 10259 10253 10249 10241 10235 10226 10219 10217 10211 10203 10197 10194 10196 10200 10203 10204 10201 10200 10200 10202 10206 10211 10216 10218 10223 10231 10239 10244 10247 10255 10265 10272 10280 10290 10298 10304 10312 10321 10330 10337 10344 10351 10359 10364 10368 10372 10377 10380 10383
10571 10571 10592 10594 10573 10561 10557 10547 10538 10530 10520 10505 10491 10479 10468 10453 10438 10432 10431 10416 10385 10369 10364 10354 10368 10390 10375 10355 10350 10334 10319 10307 10285 10271 10263 10255 10249 10242 10235 10231 10226 10221 10215 10209 10206 10201 10194 10188 10185 10185 10187 10190 10191 10190 10190 10190 10191 10196 10201 10204 10206 10212 10220 10226 10230 10233 10241 10252 10261 10268 10277 10286 10293 10301 10310 10319 10326 10334 10342 10350 10356 10361 10365 10369 10373 10376
10563 10556 10568 10582 10573 10556 10544 10534 10525 10519 10511 10501 10490 10478 10462 10448 10431 10419 10425 10421 10388 10366 10353 10332 10342 10368 10354 10336 10333 10317 10301 10290 10269 10252 10241 10232 10228 10225 10219 10214 10210 10206 10201 10197 10193 10188 10184 10179 10175 10176 10177 10178 10179 10179 10179 10181 10182 10186 10191 10194 10197 10202 10208 10213 10216 10220 10228 10240 10249 10257 10266 10275 10283 10291 10299 10307 10314 10323 10332 10339 10347 10354 10358 10362 10367 10370
10551 10546 10548 10560 10561 10550 10538 10525 10513 10504 10496 10486 10477 10466 10452 10437 10418 10401 10406 10413 10398 10378 10358 10329 10327 10347 10339 10319 10313 10301 10284 10274 10259 10241 10227 10218 10212 10208 10205 10201 10196 10193 10187 10182 10180 10178 10174 10170 10165 10165 10166 10168 10169 10168 10169 10171 10173 10177 10182 10185 10189 10194 10197 10200 10203 10207 10217 10229 10238 10246 10254 10263 10270 10278 10286 10294 10303 10312 10321 10330 10339 10346 10351 10357 10363 10366
10540 10535 10535 10540 10542 10535 10525 10514 10503 10493 10483 10475 10465 10451 10438 10426 10409 10393 10387 10385 10380 10372 10356 10330 10322 10334 10331 10310 10296 10286 10271 10258 10248 10234 10219 10209 10202 10194 10191 10189 10185 10181 10174 10169 10169 10167 10165 10162 10157 10154 10155 10158 10160 10159 10159 10162 10164 10168 10173 10176 10180 10185 10187 10189 10192 10198 10208 10218 10226 10234 10242 10249 10257 10266 10274 10283 10292 10302 10312 10321 10329 10336 10344 10351 10357 10360
10530 10524 10520 10522 10527 10527 10517 10504 10495 10484 10471 10462 10455 10445 10433 10420 10405 10396 10385 10369 10358 10354 10342 10320 10309 10321 10327 10307 10288 10278 10262 10247 10238 10226 10213 10204 10197 10188 10182 10179 10173 10168 10163 10159 10158 10157 10154 10152 10149 10144 10143 10147 10151 10151 10151 10154 10156 10159 10164 10167 10171 10176 10178 10180 10183 10190 10199 10208 10215 10222 10230 10238 10246 10255 10265 10274 10284 10293 10303 10310 10317 10326 10335 10342 10348 10354
10518 10513 10506 10502 10504 10508 10508 10501 10492 10486 10474 10457 10446 10439 10429 10414 10400 10393 10385 10372 10356 10347 10339 10314 10293 10305 10317 10298 10280 10271 10254 10239 10228 10214 10203 10197 10191 10184 10176 10171 10164 10155 10151 10150 10148 10147 10144 10142 10140 10136 10134 10137 10142 10143 10144 10146 10148 10150 10154 10157 10161 10166 10169 10171 10176 10182 10190 10197 10204 10212 10219 10227 10235 10244 10256 10266 10275 10284 10292 10299 10306 10315 10324 10332 10339 10345
10508 10503 10495 10489 10484 10479 10477 10476 10470 10466 10463 10451 10435 10426 10417 10404 10393 10383 10374 10364 10346 10334 10333 10311 10281 10289 10300 10282 10270 10263 10243 10229 10216 10201 10193 10188 10181 10175 10170 10165 10157 10146 10140 10139 10139 10138 10135 10132 10131 10129 10127 10129 10133 10135 10136 10138 10140 10143 10145 10148 10152 10156 10160 10164 10168 10174 10181 10188 10194 10202 10210 10217 10224 10235 10246 10256 10265 10273 10280 10287 10295 10304 10313 10323 10330 10336
10500 10495 10488 10481 10477 10467 10457 10454 10448 10440 10436 10427 10411 10403 10397 10390 10384 10373 10359 10349 10330 10314 10315 10302 10275 10274 10278 10265 10256 10250 10232 10216 10200 10186 10182 10177 10169 10167 10163 10158 10150 10140 10134 10132 10131 10130 10127 10124 10123 10121 10121 10122 10124 10125 10126 10128 10132 10135 10138 10141 10144 10148 10153 10157 10163 10169 10175 10181 10186 10193 10201 10209 10217 10226 10236 10246 10255 10262 10269 10277 10285 10294 10304 10313 10321 10328
10489 10486 10480 10474 10471 10462 10450 10443 10438 10429 10421 10409 10391 10379 10375 10373 10371 10362 10348 10337 10319 10298 10290 10284 10272 10265 10258 10247 10240 10234 10220 10202 10186 10175 10169 10163 10159 10159 10156 10150 10143 10133 10128 10126 10125 10123 10120 10117 10115 10114 10114 10114 10116 10117 10117 10119 10124 10128 10131 10133 10137 10141 10146 10151 10158 10165 10170 10175 10179 10185 10193 10201 10210 10218 10227 10236 10246 10253 10261 10269 10278 10287 10295 10304 10313 10320
10479 10474 10467 10464 10464 10456 10441 10431 10425 10417 10411 10398 10377 10361 10357 10356 10354 10346 10336 10325 10309 10288 10273 10266 10263 10256 10242 10231 10226 10223 10213 10193 10176 10168 10158 10149 10149 10151 10147 10142 10135 10126 10121 10118 10117 10115 10114 10111 10108 10107 10108 10108 10109 10109 10111 10112 10115 10120 10124 10126 10130 10135 10139 10145 10151 10157 10163 10168 10172 10179 10187 10194 10202 10211 10220 10228 10237 10247 10255 10264 10272 10280 10288 10296 10305 10313
10464 10463 10454 10449 10455 10451 10434 10421 10413 10405 10398 10385 10364 10350 10344 10342 10339 10330 10320 10313 10298 10281 10270 10261 10255 10248 10236 10224 10217 10216 10208 10188 10169 10159 10147 10138 10141 10143 10141 10134 10126 10119 10114 10110 10109 10108 10106 10104 10102 10101 10101 10102 10103 10103 10105 10107 10108 10112 10116 10119 10123 10127 10132 10138 10144 10149 10155 10160 10166 10174 10182 10188 10194 10204 10214 10223 10234 10243 10251 10258 10264 10272 10280 10288 10296 10304
10448 10450 10445 10437 10442 10444 10428 10414 10408 10399 10389 10371 10350 10340 10336 10331 10326 10316 10307 10302 10286 10270 10265 10260 10251 10242 10233 10221 10211 10206 10200 10183 10164 10149 10136 10131 10133 10136 10134 10127 10119 10113 10108 10104 10101 10100 10100 10098 10096 10096 10095 10096 10098 10098 10099 10101 10102 10105 10108 10111 10116 10120 10125 10131 10136 10142 10148 10153 10160 10169 10175 10181 10188 10196 10207 10218 10228 10238 10245 10251 10257 10264 10273 10280 10287 10296
10436 10435 10435 10426 10428 10434 10421 10408 10404 10398 10387 10364 10339 10332 10332 10325 10317 10308 10302 10294 10273 10254 10252 10251 10242 10230 10219 10209 10198 10193 10190 10177 10158 10140 10125 10123 10127 10128 10126 10120 10113 10108 10101 10097 10095 10093 10093 10092 10090 10090 10090 10090 10093 10094 10094 10095 10097 10099 10101 10104 10109 10113 10118 10125 10129 10135 10142 10147 10154 10162 10168 10175 10182 10190 10200 10210 10220 10230 10238 10244 10250 10257 10264 10271 10279 10288
10425 10422 10422 10416 10416 10420 10412 10401 10397 10392 10380 10356 10330 10321 10322 10317 10308 10301 10299 10288 10262 10245 10242 10237 10228 10216 10205 10195 10184 10178 10179 10172 10155 10132 10115 10114 10120 10120 10118 10113 10108 10103 10096 10091 10090 10087 10086 10086 10084 10085 10085 10085 10087 10088 10088 10089 10091 10093 10095 10098 10103 10107 10112 10118 10123 10129 10136 10142 10148 10155 10161 10169 10176 10184 10193 10202 10211 10220 10227 10234 10243 10250 10258 10264 10271 10280
10413 10410 10410 10404 10401 10403 10397 10391 10387 10382 10367 10340 10317 10310 10307 10301 10292 10285 10288 10277 10248 10236 10237 10229 10221 10211 10200 10191 10177 10164 10164 10164 10152 10126 10105 10105 10112 10109 10107 10106 10101 10098 10092 10085 10083 10082 10080 10079 10079 10079 10080 10080 10081 10082 10083 10084 10085 10087 10090 10092 10095 10100 10105 10111 10116 10123 10130 10136 10142 10148 10154 10163 10171 10178 10186 10194 10201 10209 10217 10226 10235 10244 10251 10257 10263 10273
10401 10397 10396 10392 10386 10381 10378 10375 10371 10368 10355 10325 10305 10301 10295 10287 10278 10272 10279 10271 10239 10223 10225 10221 10215 10206 10195 10187 10174 10156 10152 10156 10151 10125 10097 10097 10106 10100 10096 10098 10095 10092 10088 10081 10077 10074 10072 10073 10072 10073 10073 10073 10074 10075 10076 10078 10079 10081 10085 10087 10089 10093 10098 10104 10110 10116 10124 10131 10137 10142 10148 10157 10165 10172 10180 10187 10193 10201 10209 10218 10228 10237 10245 10252 10259 10269
10391 10385 10381 10378 10373 10362 10359 10360 10355 10351 10341 10314 10297 10295 10283 10274 10268 10260 10267 10267 10236 10214 10210 10206 10204 10197 10186 10180 10169 10151 10143 10147 10148 10128 10097 10087 10094 10091 10086 10087 10086 10086 10082 10075 10072 10068 10065 10065 10065 10066 10066 10066 10066 10067 10069 10071 10073 10076 10080 10083 10085 10088 10093 10098 10104 10110 10118 10125 10131 10137 10144 10151 10159 10166 10173 10179 10186 10194 10202 10211 10221 10232 10241 10248 10255 10262
10379 10373 10367 10365 10361 10347 10341 10346 10342 10337 10326 10303 10292 10288 10271 10259 10255 10243 10244 10249 10230 10209 10200 10192 10189 10185 10176 10170 10161 10144 10135 10136 10139 10128 10104 10087 10081 10078 10076 10076 10075 10077 10076 10070 10066 10062 10058 10058 10058 10058 10060 10059 10058 10061 10064 10066 10068 10071 10075 10078 10081 10084 10088 10094 10099 10105 10112 10119 10126 10132 10138 10145 10152 10159 10166 10172 10179 10188 10197 10207 10217 10227 10235 10243 10249 10256
10365 10361 10356 10354 10349 10337 10329 10331 10327 10319 10307 10289 10284 10281 10260 10247 10245 10234 10231 10237 10226 10209 10197 10185 10177 10173 10165 10157 10148 10135 10127 10129 10131 10123 10109 10095 10082 10070 10067 10067 10064 10065 10068 10066 10062 10057 10052 10051 10053 10053 10053 10053 10053 10055 10059 10061 10063 10065 10068 10071 10075 10080 10085 10089 10093 10099 10106 10113 10119 10126 10132 10138 10145 10151 10158 10166 10173 10182 10191 10201 10211 10221 10229 10237 10244 10251
10353 10349 10348 10346 10341 10332 10325 10322 10315 10303 10286 10272 10273 10271 10250 10237 10237 10228 10224 10229 10222 10209 10199 10186 10174 10167 10158 10148 10137 10124 10115 10115 10121 10119 10108 10098 10087 10073 10066 10065 10060 10056 10057 10057 10057 10055 10049 10046 10046 10047 10048 10047 10048 10051 10054 10056 10059 10061 10061 10064 10070 10075 10080 10084 10088 10094 10101 10107 10113 10120 10125 10131 10138 10145 10152 10159 10166 10175 10184 10194 10204 10213 10221 10229 10237 10245
10345 10338 10337 10335 10330 10324 10318 10313 10306 10294 10274 10257 10257 10256 10239 10227 10226 10217 10207 10207 10205 10198 10191 10181 10167 10157 10150 10140 10126 10116 10107 10097 10098 10105 10101 10093 10086 10074 10065 10062 10059 10055 10054 10051 10049 10049 10046 10041 10040 10040 10042 10043 10044 10047 10050 10052 10054 10055 10055 10058 10065 10070 10073 10077 10082 10088 10095 10101 10108 10114 10119 10125 10132 10139 10146 10154 10161 10169 10177 10186 10195 10204 10212 10221 10230 10237
10337 10330 10328 10325 10319 10314 10309 10301 10293 10285 10269 10250 10245 10244 10230 10216 10211 10205 10193 10186 10183 10180 10176 10168 10154 10144 10140 10131 10114 10104 10101 10092 10084 10085 10084 10079 10076 10070 10062 10057 10053 10050 10050 10048 10044 10041 10037 10033 10032 10033 10034 10037 10040 10043 10046 10049 10050 10049 10049 10054 10060 10063 10066 10071 10077 10083 10089 10096 10102 10109 10114 10121 10127 10134 10141 10149 10156 10164 10173 10181 10190 10199 10206 10214 10221 10229
10324 10317 10317 10316 10309 10305 10301 10289 10277 10274 10266 10250 10239 10235 10224 10207 10196 10192 10187 10179 10170 10165 10161 10156 10145 10133 10129 10125 10109 10094 10090 10087 10079 10076 10072 10065 10063 10061 10057 10053 10049 10045 10041 10039 10038 10036 10031 10025 10025 10027 10028 10031 10036 10040 10042 10045 10045 10044 10045 10050 10054 10055 10059 10066 10072 10077 10084 10090 10097 10104 10110 10116 10123 10130 10137 10144 10152 10160 10169 10176 10185 10193 10201 10208 10215 10223
10309 10301 10307 10310 10301 10296 10295 10281 10265 10260 10257 10244 10230 10225 10217 10202 10186 10179 10177 10171 10161 10153 10148 10145 10138 10126 10118 10115 10105 10091 10084 10079 10074 10071 10066 10057 10052 10050 10047 10045 10044 10041 10036 10032 10031 10030 10026 10021 10021 10024 10025 10027 10032 10036 10038 10040 10040 10040 10042 10045 10047 10049 10055 10062 10067 10072 10078 10086 10093 10099 10106 10113 10120 10126 10133 10140 10148 10156 10164 10172 10180 10188 10195 10202 10210 10218
10293 10283 10294 10301 10292 10286 10285 10273 10257 10250 10243 10230 10218 10213 10207 10195 10180 10168 10163 10159 10151 10142 10135 10130 10126 10119 10110 10105 10096 10085 10078 10074 10069 10065 10061 10053 10046 10044 10040 10037 10035 10034 10031 10028 10026 10024 10022 10018 10018 10020 10022 10024 10027 10031 10033 10034 10035 10035 10037 10039 10041 10045 10051 10057 10062 10068 10074 10081 10088 10095 10102 10110 10116 10123 10130 10137 10144 10152 10160 10168 10176 10183 10190 10197 10205 10213
10278 10270 10284 10290 10282 10279 10274 10259 10248 10243 10234 10218 10209 10204 10197 10187 10174 10161 10154 10150 10142 10131 10122 10116 10114 10110 10105 10099 10091 10078 10069 10066 10063 10058 10054 10049 10042 10039 10037 10034 10031 10029 10027 10023 10021 10019 10017 10014 10014 10016 10018 10021 10023 10025 10028 10029 10029 10031 10033 10035 10039 10044 10049 10054 10059 10065 10070 10076 10084 10092 10099 10106 10113 10119 10126 10134 10141 10148 10156 10164 10172 10180 10187 10193 10200 10208
10260 10262 10277 10276 10269 10270 10262 10245 10238 10235 10224 10207 10198 10194 10187 10177 10166 10154 10145 10141 10135 10124 10114 10107 10102 10099 10095 10091 10085 10073 10061 10057 10056 10051 10046 10042 10039 10034 10032 10030 10027 10024 10022 10019 10016 10014 10013 10011 10010 10012 10014 10016 10019 10021 10023 10024 10025 10027 10029 10033 10037 10043 10048 10053 10058 10062 10067 10072 10080 10088 10096 10103 10109 10115 10123 10131 10137 10144 10152 10160 10168 10176 10183 10189 10197 10205
10242 10254 10268 10262 10257 10258 10248 10235 10232 10230 10217 10199 10187 10185 10182 10174 10163 10150 10137 10129 10124 10117 10111 10103 10095 10090 10085 10080 10075 10067 10055 10049 10049 10047 10040 10035 10033 10030 10026 10024 10022 10019 10017 10016 10013 10010 10009 10007 10007 10008 10010 10012 10014 10016 10017 10019 10021 10024 10027 10030 10034 10039 10044 10050 10055 10059 10064 10069 10076 10084 10092 10098 10104 10112 10120 10127 10133 10141 10148 10156 10165 10172 10179 10186 10193 10200
10229 10248 10255 10246 10245 10244 10231 10222 10222 10220 10211 10193 10175 10169 10170 10166 10159 10149 10136 10124 10116 10109 10104 10098 10090 10084 10080 10073 10065 10057 10049 10043 10041 10041 10035 10028 10027 10026 10022 10019 10018 10015 10012 10011 10009 10007 10005 10004 10004 10004 10006 10008 10008 10010 10012 10015 10018 10021 10024 10027 10031 10035 10040 10046 10050 10055 10060 10065 10071 10079 10087 10093 10099 10108 10116 10123 10129 10136 10144 10152 10160 10168 10175 10182 10188 10195
10220 10241 10240 10228 10229 10228 10216 10210 10207 10205 10202 10190 10171 10161 10158 10154 10149 10144 10134 10122 10111 10102 10096 10090 10082 10075 10073 10071 10063 10051 10041 10035 10034 10033 10029 10023 10020 10020 10017 10014 10013 10012 10009 10006 10004 10003 10002 10001 10001 10001 10002 10004 10005 10005 10008 10011 10014 10017 10021 10024 10028 10032 10037 10041 10046 10051 10055 10060 10066 10074 10081 10088 10095 10103 10111 10119 10125 10132 10139 10146 10154 10161 10168 10175 10181 10188
10215 10232 10225 10211 10210 10210 10204 10197 10192 10188 10185 10178 10168 10160 10155 10150 10144 10136 10128 10118 10106 10094 10088 10084 10078 10068 10061 10062 10061 10051 10037 10028 10026 10025 10022 10017 10015 10014 10012 10009 10007 10006 10005 10002 9999 9998 9998 9997 9997 9997 9998 10000 10001 10001 10003 10006 10009 10013 10017 10021 10024 10028 10033 10037 10042 10046 10050 10055 10061 10068 10075 10083 10090 10098 10107 10114 10120 10126 10133 10140 10147 10154 10161 10167 10173 10179
10212 10220 10208 10196 10194 10195 10191 10184 10178 10173 10165 10158 10152 10148 10144 10142 10137 10127 10118 10111 10101 10089 10080 10075 10072 10066 10054 10048 10050 10048 10038 10026 10019 10016 10013 10010 10008 10007 10006 10005 10002 10000 9998 9997 9995 9994 9994 9993 9993 9993 9994 9996 9997 9997 9999 10001 10004 10009 10013 10017 10020 10024 10028 10033 10036 10040 10044 10050 10056 10063 10070 10078 10085 10092 10101 10109 10115 10121 10128 10134 10141 10148 10154 10160 10166 10171